TimeEDT,TemperatureF,Dew PointF,Humidity,Sea Level PressureIn,VisibilityMPH,Wind Direction,Wind SpeedMPH,Gust SpeedMPH,PrecipitationIn,Events,Conditions,WindDirDegrees,DateUTC
12:15 AM,47.7,43.7,86,29.92,7.0,Calm,Calm,-,N/A,,Clear,0,2014-04-26 04:15:00
12:35 AM,45.1,41.5,87,29.92,10.0,Calm,Calm,-,N/A,,Mostly Cloudy,0,2014-04-26 04:35:00
12:55 AM,47.7,44.1,87,29.92,10.0,Calm,Calm,-,N/A,,Mostly Cloudy,0,2014-04-26 04:55:00
1:15 AM,46.9,43.2,87,29.92,10.0,Calm,Calm,-,N/A,,Clear,0,2014-04-26 05:15:00
1:35 AM,47.7,43.9,87,29.92,10.0,Calm,Calm,-,N/A,,Clear,0,2014-04-26 05:35:00
1:55 AM,47.7,44.1,87,29.92,10.0,Calm,Calm,-,N/A,,Clear,0,2014-04-26 05:55:00
2:15 AM,47.7,43.9,87,29.91,10.0,Calm,Calm,-,N/A,,Clear,0,2014-04-26 06:15:00
2:35 AM,47.7,44.1,87,29.90,10.0,SW,3.5,-,N/A,,Clear,220,2014-04-26 06:35:00
2:55 AM,47.7,43.0,84,29.90,10.0,WSW,4.6,-,N/A,,Clear,240,2014-04-26 06:55:00
3:15 AM,50.0,42.1,74,29.90,10.0,WSW,3.5,-,N/A,,Clear,240,2014-04-26 07:15:00
3:35 AM,47.7,40.1,75,29.90,10.0,Calm,Calm,-,N/A,,Clear,0,2014-04-26 07:35:00
3:55 AM,47.7,40.1,75,29.90,10.0,SSW,4.6,-,N/A,,Mostly Cloudy,200,2014-04-26 07:55:00
4:15 AM,47.7,40.8,77,29.89,10.0,SW,5.8,-,N/A,,Overcast,230,2014-04-26 08:15:00
4:35 AM,49.1,41.2,74,29.90,10.0,SW,6.9,-,N/A,,Mostly Cloudy,230,2014-04-26 08:35:00
4:55 AM,47.7,40.8,77,29.90,10.0,SW,3.5,-,N/A,,Mostly Cloudy,230,2014-04-26 08:55:00
5:15 AM,48.9,41.0,74,29.90,10.0,SW,3.5,-,N/A,,Overcast,230,2014-04-26 09:15:00
5:35 AM,47.8,39.9,74,29.90,10.0,SW,4.6,-,N/A,,Mostly Cloudy,230,2014-04-26 09:35:00
5:55 AM,50.2,41.0,71,29.90,10.0,SSW,5.8,-,N/A,,Mostly Cloudy,210,2014-04-26 09:55:00
6:35 AM,47.7,39.9,75,29.91,10.0,WSW,3.5,-,N/A,,Clear,240,2014-04-26 10:35:00
6:55 AM,47.7,41.0,78,29.91,10.0,SW,4.6,-,N/A,,Mostly Cloudy,220,2014-04-26 10:55:00
7:15 AM,47.7,41.4,79,29.92,10.0,Calm,Calm,-,N/A,,Overcast,0,2014-04-26 11:15:00
7:35 AM,48.2,41.4,77,29.95,10.0,NE,6.9,-,N/A,,Overcast,50,2014-04-26 11:35:00
7:55 AM,52.7,43.9,72,29.95,10.0,Calm,Calm,-,N/A,,Mostly Cloudy,0,2014-04-26 11:55:00
8:15 AM,52.5,46.2,79,29.95,10.0,Calm,Calm,-,N/A,,Scattered Clouds,0,2014-04-26 12:15:00
8:35 AM,52.7,43.7,71,29.95,10.0,Calm,Calm,-,N/A,,Clear,0,2014-04-26 12:35:00
8:55 AM,55.4,44.4,67,29.95,10.0,Calm,Calm,-,N/A,,Clear,0,2014-04-26 12:55:00
9:15 AM,57.7,42.1,56,29.95,10.0,Calm,Calm,-,N/A,,Scattered Clouds,0,2014-04-26 13:15:00
9:35 AM,59.0,41.0,51,29.95,10.0,WNW,3.5,-,N/A,,Scattered Clouds,290,2014-04-26 13:35:00
9:55 AM,60.8,39.4,45,29.95,10.0,West,11.5,-,N/A,,Scattered Clouds,260,2014-04-26 13:55:00
10:15 AM,62.6,40.1,44,29.94,10.0,WSW,11.5,-,N/A,,Scattered Clouds,250,2014-04-26 14:15:00
10:35 AM,62.6,39.4,42,29.94,10.0,WSW,8.1,-,N/A,,Scattered Clouds,240,2014-04-26 14:35:00
10:55 AM,65.3,42.1,43,29.95,10.0,WSW,8.1,12.7,N/A,,Scattered Clouds,240,2014-04-26 14:55:00
11:15 AM,67.6,43.7,42,29.94,10.0,SW,5.8,-,N/A,,Clear,230,2014-04-26 15:15:00
11:35 AM,67.6,40.8,38,29.94,10.0,West,11.5,-,N/A,,Clear,270,2014-04-26 15:35:00
11:55 AM,68.2,39.6,35,29.94,10.0,WSW,12.7,20.7,N/A,,Clear,250,2014-04-26 15:55:00
12:15 PM,69.6,40.8,35,29.93,10.0,WSW,10.4,17.3,N/A,,Clear,250,2014-04-26 16:15:00
12:35 PM,72.7,41.5,32,29.93,10.0,West,11.5,19.6,N/A,,Clear,260,2014-04-26 16:35:00
12:55 PM,72.7,40.5,31,29.92,10.0,WSW,11.5,18.4,N/A,,Clear,240,2014-04-26 16:55:00
1:15 PM,72.7,39.6,30,29.92,10.0,WSW,12.7,19.6,N/A,,Clear,250,2014-04-26 17:15:00
1:35 PM,72.7,41.4,32,29.92,10.0,West,10.4,-,N/A,,Clear,280,2014-04-26 17:35:00
1:55 PM,74.3,39.4,28,29.91,10.0,West,10.4,20.7,N/A,,Clear,260,2014-04-26 17:55:00
2:15 PM,75.2,39.7,28,29.91,10.0,West,12.7,20.7,N/A,,Clear,260,2014-04-26 18:15:00
2:35 PM,75.2,39.2,27,29.91,10.0,West,13.8,17.3,N/A,,Clear,280,2014-04-26 18:35:00
2:55 PM,75.2,36.3,24,29.91,10.0,West,17.3,24.2,N/A,,Clear,280,2014-04-26 18:55:00
3:15 PM,76.6,38.3,25,29.91,10.0,WNW,12.7,23.0,N/A,,Scattered Clouds,290,2014-04-26 19:15:00
3:35 PM,76.5,35.6,23,29.90,10.0,WNW,13.8,27.6,N/A,,Scattered Clouds,290,2014-04-26 19:35:00
3:55 PM,77.9,34.5,21,29.90,10.0,WNW,13.8,23.0,N/A,,Clear,300,2014-04-26 19:55:00
4:15 PM,77.9,33.3,20,29.90,10.0,WNW,13.8,25.3,N/A,,Scattered Clouds,290,2014-04-26 20:15:00
4:35 PM,77.9,38.5,24,29.90,10.0,WNW,16.1,23.0,N/A,,Scattered Clouds,300,2014-04-26 20:35:00
4:55 PM,77.9,35.2,21,29.89,10.0,WNW,13.8,19.6,N/A,,Clear,290,2014-04-26 20:55:00
5:15 PM,77.9,34.9,21,29.90,10.0,WNW,13.8,24.2,N/A,,Clear,290,2014-04-26 21:15:00
5:35 PM,77.9,35.1,21,29.90,10.0,WNW,12.7,19.6,N/A,,Clear,300,2014-04-26 21:35:00
5:55 PM,77.9,36.3,22,29.90,10.0,NW,11.5,-,N/A,,Clear,320,2014-04-26 21:55:00
6:15 PM,76.3,34.5,22,29.90,10.0,NW,15.0,18.4,N/A,,Clear,310,2014-04-26 22:15:00
6:35 PM,75.2,35.1,23,29.90,10.0,NW,12.7,17.3,N/A,,Clear,310,2014-04-26 22:35:00
6:55 PM,75.2,37.9,26,29.90,10.0,North,8.1,17.3,N/A,,Clear,360,2014-04-26 22:55:00
7:15 PM,72.7,39.2,30,29.90,10.0,NNE,13.8,-,N/A,,Clear,20,2014-04-26 23:15:00
7:35 PM,72.7,42.8,34,29.90,10.0,NNE,11.5,-,N/A,,Clear,20,2014-04-26 23:35:00
7:55 PM,68.7,41.2,37,29.91,10.0,NNE,8.1,-,N/A,,Clear,30,2014-04-26 23:55:00
8:15 PM,67.6,40.6,37,29.92,10.0,NE,8.1,-,N/A,,Clear,40,2014-04-27 00:15:00
8:35 PM,67.6,41.7,39,29.92,10.0,NNE,9.2,-,N/A,,Clear,30,2014-04-27 00:35:00
8:55 PM,65.3,42.4,43,29.93,10.0,NNE,6.9,-,N/A,,Clear,30,2014-04-27 00:55:00
9:15 PM,62.8,40.3,44,29.93,10.0,NE,8.1,-,N/A,,Clear,40,2014-04-27 01:15:00
9:35 PM,62.1,39.6,44,29.94,10.0,NNE,5.8,-,N/A,,Clear,20,2014-04-27 01:35:00
10:15 PM,60.8,34.9,38,29.96,10.0,NNE,8.1,-,N/A,,Clear,30,2014-04-27 02:15:00
10:35 PM,60.1,33.4,37,29.97,10.0,NNE,6.9,-,N/A,,Clear,30,2014-04-27 02:35:00
10:55 PM,58.8,35.2,41,29.98,10.0,NE,6.9,-,N/A,,Clear,40,2014-04-27 02:55:00
11:15 PM,57.7,36.1,44,29.98,10.0,NNE,5.8,-,N/A,,Clear,30,2014-04-27 03:15:00
11:35 PM,57.7,35.8,44,29.98,10.0,NNE,4.6,-,N/A,,Clear,30,2014-04-27 03:35:00
11:55 PM,57.7,36.5,45,29.99,10.0,ENE,12.7,-,N/A,,Clear,70,2014-04-27 03:55:00